Location: Larrial
(48.2758°N, 4.5331°W)
Time: 23:46:33
(UTC+00:00)

Cosmos 2154 Rocket - Pass Details

Date: 09 April 2020
Orbit: 965 x 997 km, 82.9° (Epoch: 22 May)

Event Time Altitude Azimuth Distance (km) Brightness Sun altitude
Rises 19:22:07 0° 353° (N) 3,730 7.4 -4.3°
Reaches altitude 10° 19:24:45 10° 359° (N) 2,775 6.6 -4.7°
Maximum altitude 19:30:57 52° 75° (ENE) 1,227 4.3 -5.7°
Drops below altitude 10° 19:37:04 10° 151° (SSE) 2,742 5.9 -6.6°
Sets 19:39:39 0° 156° (SSE) 3,682 6.6 -7.0°
